Location: ??????????
(48.4699°N, 37.9573°E)
Time: 12:16:08
(UTC+00:00)

Cosmos 1606 Rocket - Pass Details

Date: 20 January 2021
Orbit: 604 x 631 km, 82.5° (Epoch: 26 February)

Event Time Altitude Azimuth Distance (km) Brightness Sun altitude
Rises 15:12:46 0° 350° (N) 2,890 6.9 -10.6°
Reaches altitude 10° 15:14:59 10° 350° (N) 1,984 6.1 -10.9°
Maximum altitude 15:19:23 87° 265° (W) 626 3.6 -11.6°
Drops below altitude 10° 15:23:48 10° 173° (S) 1,985 6.3 -12.3°
Sets 15:26:01 0° 173° (S) 2,890 7.1 -12.7°
